Weather in Bugul'chan

Russia / Republic of Bashkortostan     52°50′07″N   55°57′48″E
temp.,
°C
wind,
m/s
gust,
m/s
humid.,
%
clouds,
%
prec.,
mm/h
press.,
hPa
HPBL,
m
3 march, wed
wed323:00−7ssw91693100 1.9 1009724
02:00−5ssw81495100 1.5 1006724
05:00−5ssw81395100 3.1 1005661
08:00−3ssw51096100 1.5 1003492
11:00−2sw6996100 3.1 1003581
14:00−1sw6997100 0.9 1003649
17:00−1sw589799 1.9 1002511
20:00−2wnw3698100 1.4 1002312
4 march, thu
thu423:00−7wnw3695100 1.6 1003110
02:00−9w379883 0.1 1003159
05:00−11wsw389691 0.1 1006188
08:00−11w3896100 0.4 1007218
11:00−11wsw379692 0.4 1009286
14:00−8sw71093100 0.1 1008527
17:00−8ssw81493100 0.3 1007578
20:00−6sw101793100 0.8 1006861
5 march, fri
fri523:00−4sw101795100 2.9 1004941
02:00−1wsw101595100 1.1 10031027
05:00−2wsw91596100 2.0 1005807
08:00−3sw91595100 1.5 1006764
11:00−3ssw101696100 2.9 1006750
14:00−2ssw111796100 2.9 1005964
17:00−1sw101697100 5.6 1004991
20:000sw101797100 1.8 1003965
6 march, sat
sat623:000wsw91597100 4.1 1005864
02:00−5nnw5996100 2.2 1008402
05:00−11n3697100 2.3 1013138
08:00−16n229568 0.0 101520
11:00−11ene118477 0.0 101593
14:00−6ese1270100 0.0 1014278
17:00−5se3579100 0.0 1011469
20:00−6ne2497100 1.9 1008154
7 march, sun
sun723:00−6n4696100 4.1 1005236
02:00−9nnw3996100 0.3 1005293
05:00−11wnw3496100 0.4 1008118
08:00−16wsw229994 0.0 101022
11:00−14w369697 0.1 1011307
14:00−13wnw4793100 0.0 1013428
17:00−14w479199 0.1 1014450
20:00−20sw239938 0.0 101520